Retour au catalogue

FENGYUN 1C DEB

ActifSSO
NORAD 31264·DEBRIS·🇨🇳 China

Lancé May 10, 1999 depuis Taiyuan Satellite Launch Center

Loading…

Prochains Passages (prochaines 24 heures)

TLE

FraisSource: Space-Track

Époque: Sep 13, 2026, 12:21 UTC

1 31264U 99025BMW 26256.51501012  .00000648  00000-0  33232-3 0  9991
2 31264  99.0961 165.9001 0001180  43.4082 132.1206 14.19137268  3038

Suivez FENGYUN 1C DEB en temps réel avec AllMySat

Download on the App Store